Regional Weather Roundup
Issued by NWS Huntsville, AL

Home | Current Version | Previous Version | Text Only | Print | Product List | Glossary On
Versions: 1 2 3 4 5 6 7 8 9 10 11 12 13 14 15 16 17 18 19 20 21 22 23 24 25 26 27 28 29 30 31 32 33 34 35 36 37 38 39 40 41 42 43 44 45 46 47 48 49 50
000
ASUS44 KHUN 250210
RWRHUN

WEATHER ROUNDUP FOR THE TENNESSEE VALLEY
NATIONAL WEATHER SERVICE HUNTSVILLE AL
900 PM CDT SUN JUL 24 2016

ALZ001>004-250300-
NORTHWEST ALABAMA

CITY           SKY/WX    TMP DP  RH WIND       PRES   REMARKS
SHOALS AIRPORT PTCLDY    79  75  87 W5        30.03R
SHOALS TVA RES   N/A     77 N/A N/A MISG        N/A
$$

ALZ005>007-016-250300-
NORTH CENTRAL ALABAMA

CITY           SKY/WX    TMP DP  RH WIND       PRES   REMARKS
DECATUR AP     PTCLDY    77  76  96 CALM      30.03R
HUNTSVILLE AP  PTCLDY    81  70  69 W3        30.03R
MERIDIANVILLE  CLOUDY    79  70  73 CALM      30.04R
REDSTONE ARSN  PTCLDY    82  73  73 W5        30.03R
VINEMONT AP    FAIR      74  73  97 CALM      30.06S
$$

ALZ008>010-250300-
NORTHEAST ALABAMA

CITY           SKY/WX    TMP DP  RH WIND       PRES   REMARKS
ALBERTVILLE    CLEAR     81  77  89 CALM      30.05R
FORT PAYNE     MOCLDY    79  72  78 CALM      30.05R
SCOTTSBORO AP  PTCLDY    79  70  73 W7G20     30.05R
SCOTTSBORO HCN   N/A     81 N/A N/A MISG        N/A
VALLEY HEAD      N/A     77 N/A N/A MISG        N/A
$$

TNZ076-096-097-250300-
SOUTHEASTERN MIDDLE TENNESSEE

CITY           SKY/WX    TMP DP  RH WIND       PRES   REMARKS
TULLAHOMA      CLEAR     79  70  73 CALM      30.06R
WINCHESTER     PTCLDY    75  73  94 SE3       30.05S
$$

...SURROUNDING SITES...

CITY           SKY/WX    TMP DP  RH WIND       PRES   REMARKS
ATLANTA        MOCLDY    84  71  65 CALM      30.05R
ANNISTON       CLEAR     81  74  79 CALM      30.03R
BIRMINGHAM     CLEAR     82  75  79 CALM      30.04R
CHATTANOOGA    PTCLDY    80  72  76 N3        30.04R
DALTON         MOCLDY    77  77 100 CALM      30.05R
GADSDEN        CLEAR     80  77  90 N3        30.04R
GOLDEN TRNGL   CLEAR     81  72  74 CALM      29.98R
HALEYVILLE     FAIR      74  73  97 CALM      30.06R FOG
JACKSON TN     CLOUDY    78  77  96 CALM      29.98R
MEMPHIS        CLOUDY    87  72  60 SE5       29.97R HX  93
NASHVILLE      CLOUDY    87  71  58 CALM      30.00S HX  93
OXFORD MS      FAIR      77  77 100 CALM      30.01R
ROME           MOCLDY    85  72  65 CALM      30.02R HX  91
SAVANNAH       CLEAR     79  77  94 CALM      29.99S
TUPELO         MOCLDY    84  75  74 CALM      29.99R HX  92
TUSCALOOSA     PTCLDY    80  77  90 CALM      29.99R
$$

...GULF COAST WEATHER...

CITY           SKY/WX    TMP DP  RH WIND       PRES   REMARKS
GULFPORT       CLOUDY    84  75  74 SE5       29.96S HX  92
PASCAGOULA     PTCLDY    79  79 100 CALM      29.97S
MOBILE         CLOUDY    81  73  76 SE5       30.00R
GULF SHORES    CLOUDY    81  76  85 S7        29.98R
PENSACOLA      CLEAR     85  74  69 SE8       29.98R HX  92
DESTIN         PTCLDY    87  78  74 SE9       29.99R HX 100
PANAMA CITY    CLEAR     80  74  82 E6        30.01R
APPALACHICOLA  PTCLDY    84  77  79 S9        30.00R HX  94
$$




USA.gov is the U.S. government's official web portal to all federal, state and local government web resources and services.